Weather History for PANN - December, 2013

Change the Weather History Date:

Monday, December 23, 2013

  Actual Average (PAFA) Record (PAFA)
Temperature  
Mean Temperature 14 °F -5 °F  
Max Temperature 42 °F 4 °F 44 °F (1985)
Min Temperature -16 °F -14 °F -53 °F (1961)
Degree Days  
Heating Degree Days 52 70  
Month to date heating degree days 1574  
Since 1 July heating degree days 5705  
Cooling Degree Days 0 0  
Month to date cooling degree days 0  
Year to date cooling degree days 61  
Moisture  
Dew Point 1 °F    
Average Humidity 80    
Maximum Humidity 100    
Minimum Humidity 70    
Precipitation  
Precipitation 0.03 in 0.02 in 0.53 in (1984)
Month to date precipitation 0.46  
Year to date precipitation 10.63  
Snow  
Snow 0.00 in 0.40 in 7.10 in (1984)
Month to date snowfall 8.8  
Since 1 July snowfall 34.6  
Snow Depth -    
Sea Level Pressure  
Sea Level Pressure 30.05 in    
Wind  
Wind Speed 4 mph (SW)    
Max Wind Speed 8 mph    
Max Gust Speed -    
Visibility 9 miles    
Events Snow    
T = Trace of Precipitation, MM = Missing Value Source: NWS Daily Summary

Daily Weather History Graph

Daily Weather History Graph

Search for Another Location

Airport or City:

Trip Planner

Search our weather history database for the weather conditions in past years. The results will help you decide how hot, cold, wet, or windy it might be!

Date:

Astronomy

Dec. 23, 2013 Rise Set
Actual Time 10:58 AM AKST 2:52 PM AKST
Civil Twilight 9:36 AM AKST 4:15 PM AKST
Nautical Twilight 8:25 AM AKST 5:25 PM AKST
Astronomical Twilight 7:24 AM AKST 6:26 PM AKST
Moon 11:50 PM AKST (12/23) 12:00 PM AKST (12/23)
Length of Visible Light 6h 38m
Length of Day
3h 53m
Waning Gibbous, 66% of the Moon is Illuminated
Dec 23
Waning Gibbous
Dec 25
Last Quarter
Jan 1
New
Jan 7
First Quarter
Jan 15
Full

Hourly Weather History & Observations

Time (AKST) Temp. Windchill Dew Point Humidity Pressure Visibility Wind Dir Wind Speed Gust Speed Precip Events Conditions
12:53 AM 9.0 °F -2.2 °F 1.0 °F 70% 29.90 in 10.0 mi Variable 6.9 mph - N/A   Overcast
1:53 AM 10.0 °F -1.9 °F 1.9 °F 70% 29.91 in 10.0 mi WSW 8.1 mph - N/A   Overcast
2:53 AM 8.1 °F -2.0 °F 1.0 °F 73% 29.94 in 10.0 mi Variable 5.8 mph - N/A   Mostly Cloudy
3:53 AM 6.1 °F -2.8 °F -0.0 °F 76% 29.95 in 10.0 mi Variable 4.6 mph - N/A   Scattered Clouds
4:53 AM 5.0 °F - -0.9 °F 76% 29.96 in 10.0 mi Calm Calm - N/A   Clear
5:53 AM -2.0 °F - -5.1 °F 87% 29.96 in 10.0 mi Calm Calm - N/A   Partly Cloudy
6:53 AM -4.0 °F -12.4 °F -8.0 °F 83% 29.96 in 10.0 mi ESE 3.5 mph - N/A   Overcast
7:31 AM -2.9 °F -11.2 °F -6.0 °F 87% 29.91 in 2.5 mi East 3.5 mph - 0.00 in Snow Light Snow
7:38 AM -2.9 °F -11.2 °F -7.1 °F 82% 29.91 in 6.0 mi East 3.5 mph - 0.00 in   Overcast
7:53 AM -2.9 °F - -8.0 °F 79% 29.96 in 6.0 mi Calm Calm - 0.00 in   Haze
8:53 AM -0.9 °F - -7.1 °F 75% 29.97 in 7.0 mi Calm Calm - N/A   Overcast
9:53 AM 5.0 °F -4.1 °F -0.0 °F 80% 29.99 in 10.0 mi Variable 4.6 mph - N/A   Mostly Cloudy
10:41 AM 6.1 °F -4.3 °F 1.0 °F 80% 29.96 in 10.0 mi Variable 5.8 mph - N/A   Mostly Cloudy
10:53 AM 7.0 °F -3.3 °F 1.9 °F 80% 30.01 in 10.0 mi WSW 5.8 mph - N/A   Overcast
11:53 AM 6.1 °F -0.9 °F 1.0 °F 80% 30.04 in 10.0 mi Variable 3.5 mph - N/A   Overcast
12:06 PM 6.1 °F -0.9 °F 1.0 °F 80% 30.00 in 10.0 mi West 3.5 mph - N/A   Overcast
12:53 PM 5.0 °F -2.1 °F -0.0 °F 80% 30.06 in 10.0 mi Variable 3.5 mph - N/A   Mostly Cloudy
1:53 PM 3.9 °F - -0.9 °F 80% 30.08 in 10.0 mi Calm Calm - N/A   Clear
2:53 PM 3.0 °F - -2.0 °F 80% 30.10 in 10.0 mi Calm Calm - N/A   Clear
3:53 PM -4.0 °F - -8.0 °F 83% 30.12 in 10.0 mi Calm Calm - N/A   Mostly Cloudy
4:33 PM 3.0 °F -4.4 °F -0.9 °F 84% 30.09 in 10.0 mi WSW 3.5 mph - N/A   Mostly Cloudy
4:53 PM 3.9 °F -5.3 °F -0.9 °F 80% 30.14 in 10.0 mi WSW 4.6 mph - N/A   Overcast
5:53 PM 3.9 °F - -0.9 °F 80% 30.16 in 10.0 mi Calm Calm - N/A   Overcast
6:53 PM 5.0 °F -2.1 °F -0.0 °F 80% 30.17 in 10.0 mi Variable 3.5 mph - N/A   Overcast
7:53 PM 1.9 °F - -2.9 °F 80% 30.19 in 10.0 mi Calm Calm - N/A   Overcast
8:53 PM -6.0 °F - -11.0 °F 79% 30.21 in 10.0 mi Calm Calm - N/A   Clear
9:53 PM -11.0 °F - -16.1 °F 78% 30.22 in 10.0 mi Calm Calm - N/A   Clear
10:53 PM -15.0 °F - -20.0 °F 78% 30.23 in 10.0 mi Calm Calm - N/A   Clear
11:53 PM -16.1 °F - -20.9 °F 79% 30.25 in 10.0 mi Calm Calm - N/A   Clear